Home   Weather   Coburg   Past weeks

Flag for Germany Past Weather in Coburg, Bavaria, Germany — Yesterday and Last 2 Weeks

Now
37 °F

Clear.


Feels Like: 34 °F
Forecast: 34 / 52 °F
Wind: 5 mph from Southwest

Location: Erfurt-Bindersleben

Current Time: Apr 28, 2017 at 3:03:52 am

Latest Report: Apr 28, 2017 at 2:20 am


Visibility: 10 mi

Pressure: 29.92 "Hg

Humidity: 93%

Dew Point: 36 °F

Location of CoburgLocation

Past Weather in Coburg — Graph

°F

Coburg Temperature Yesterday

Maximum temperature yesterday: 52 °F (at 2:20 pm)
Minimum temperature yesterday: 30 °F (at 4:50 am)
Average temperature yesterday: 41 °F

High & Low Weather Summary for the Past Weeks

 TemperatureHumidityPressure
High57 °F (Apr 24, 3:20 pm)100% (Apr 15, 5:20 pm)30.57 "Hg (Apr 15, 5:20 pm)
Low27 °F (Apr 20, 5:50 am)39% (Apr 24, 5:20 pm)29.62 "Hg (Apr 25, 4:20 am)
Average41 °F76%30.07 "Hg
* Reported Apr 13 1:20 am — Apr 28 1:50 am, Coburg, Weather by CustomWeather, © 2017

Note: Actual official high and low records may vary slightly from our data, if they occured in-between our weather recording intervals... More about our weather records

Advertising

Coburg Weather History for the Previous 24 Hours

Scroll right to see more
 ConditionsComfort  
Time TempWeatherWind HumidityBarometerVisibility
1:50 am
Fri, Apr 28
39 °FClear.3 mph87%29.92 "Hg10 mi
1:20 am39 °FClear.2 mph87%29.92 "Hg10 mi
12:50 am41 °FClear.1 mph81%29.95 "Hg10 mi
12:20 am39 °FClear.1 mph93%29.95 "Hg10 mi
11:50 pm
Thu, Apr 27
39 °FClear.1 mph93%29.95 "Hg10 mi
11:20 pm39 °FClear.2 mph93%29.95 "Hg10 mi
10:50 pm41 °FClear.6 mph87%29.95 "Hg10 mi
10:20 pm41 °FClear.5 mph87%29.95 "Hg10 mi
9:50 pm41 °FPartly cloudy.6 mph87%29.95 "HgN/A
9:20 pm41 °FPartly cloudy.6 mph87%29.95 "HgN/A
8:50 pm43 °FPartly cloudy.7 mph81%29.95 "HgN/A
8:20 pm45 °FBroken clouds.6 mph76%29.95 "HgN/A
7:50 pm45 °FBroken clouds.7 mph76%29.92 "HgN/A
7:20 pm46 °FBroken clouds.7 mph71%29.92 "HgN/A
6:50 pm46 °FPartly sunny.8 mph66%29.92 "HgN/A
6:20 pm46 °FScattered clouds.10 mph71%29.95 "HgN/A
5:50 pm46 °FBroken clouds.10 mph71%29.95 "HgN/A
5:20 pm46 °FScattered clouds.10 mph71%29.95 "HgN/A
4:50 pm48 °FScattered clouds.6 mph66%29.95 "HgN/A
4:20 pm46 °FScattered clouds.7 mph66%29.95 "HgN/A
3:50 pm45 °FSprinkles. Partly sunny.7 mph66%29.95 "HgN/A
3:20 pm46 °FScattered clouds.6 mph66%29.95 "HgN/A
2:50 pm48 °FScattered clouds.7 mph58%29.95 "HgN/A
2:20 pm52 °FScattered clouds.5 mph54%29.95 "HgN/A
1:50 pm48 °FScattered showers. Scattered clouds.5 mph58%29.95 "HgN/A
1:20 pm48 °FScattered showers. Scattered clouds.5 mph58%29.95 "HgN/A
12:50 pm46 °FScattered showers. Scattered clouds.3 mph62%29.95 "HgN/A
12:20 pm50 °FScattered clouds.6 mph58%29.95 "HgN/A
11:50 am48 °FScattered clouds.6 mph62%29.95 "HgN/A
11:20 am46 °FScattered clouds.8 mph66%29.95 "HgN/A
10:50 am46 °FScattered clouds.7 mph62%29.95 "HgN/A
10:20 am45 °FScattered clouds.5 mph66%29.95 "HgN/A
9:50 am43 °FScattered clouds.3 mph66%29.95 "HgN/A
9:20 am43 °FScattered clouds.3 mph76%29.95 "HgN/A
8:50 am39 °FSunny.5 mph81%29.95 "Hg10 mi
8:20 am37 °FBroken clouds.3 mph87%29.95 "HgN/A
7:50 am36 °FPartly sunny.3 mph87%29.92 "HgN/A
6:50 am32 °FSunny.6 mph93%29.92 "Hg10 mi
6:20 am30 °FSunny.7 mph93%29.92 "Hg10 mi
5:50 am30 °FClear.7 mph93%29.92 "Hg10 mi
5:20 am30 °FClear.7 mph93%29.89 "Hg10 mi
4:50 am30 °FClear.7 mph93%29.89 "Hg10 mi
3:50 am32 °FClear.6 mph87%29.89 "Hg10 mi
3:20 am32 °FClear.7 mph87%29.89 "Hg10 mi
Weather by CustomWeather, © 2017

See weather overviewHow to use our weather pages